Location: Boca do Mato
(22.9085°S, 43.2930°W)
Time: 22:39:12
(UTC+00:00)

EPKM - Pass Details

Date: 14 July 2020
Orbit: 298 x 17561 km, 25.8° (Epoch: 09 August)

Event Time Altitude Azimuth Distance (km) Brightness Sun altitude
Exits shadow 08:20:52 34° 248° (WSW) 901 2.8 -16.6°
Maximum altitude 08:22:12 63° 179° (S) 750 2.8 -16.3°
Drops below altitude 10° 08:31:03 10° 98° (E) 4,513 8.0 -14.4°
Sets 08:38:42 0° 94° (E) 7,670 9.5 -12.7°
